Lid_Strength_Index
0 0 -0 0 1 1 0 0 0 0 0 0 -0 0 -0 -0 -1 -1 -1 -1 -1 -1 -1 -1 -1 -1 -1 -0 0 -0 0 0
0 0 0 0 0 1 1 1 1 0 0 0 1 0 0 -0 -0 -1 -1 -1 -1 -1 -1 -1 -1 -0 -0 0 0 -0 -0 -0
1 1 1 1 1 0 0 0 0 1 0 0 1 1 1 0 0 -0 -0 -0 -1 -1 -1 -1 -1 -0 0 0 0 0 0 0
1 1 1 1 -0 1 1 0 1 1 1 1 2 2 1 1 1 0 1 -0 -1 -1 -1 -1 -0 -0 0 0 1 1 0 0
2 1 0 0 0 1 1 0 1 1 2 2 2 2 1 2 2 1 1 -1 -0 -0 -0 -0 -0 -0 0 1 1 1 1 0
1 1 1 0 1 1 1 1 1 1 1 1 1 1 1 1 1 1 0 0 0 0 0 -0 -0 -0 0 1 1 1 1 1
1 1 1 1 1 1 1 1 0 1 1 1 0 1 2 1 2 1 0 -0 -0 0 -0 -0 -0 -0 0 1 1 1 1 0
1 2 1 1 1 2 1 1 1 1 1 1 1 1 2 2 2 1 1 0 0 0 0 0 0 0 0 1 1 1 1 1
2 2 1 1 1 2 2 2 2 1 1 1 1 2 2 2 2 2 1 0 0 0 0 0 1 0 0 1 1 1 1 1
2 1 2 1 1 2 2 2 2 2 2 1 1 1 1 2 2 2 1 -0 0 1 1 1 1 1 1 1 1 1 1 1
2 1 2 2 2 2 2 2 2 3 2 1 1 1 1 1 1 1 1 0 1 1 1 1 2 2 1 1 2 2 2 1
2 2 2 2 2 2 2 3 3 2 2 2 2 1 2 2 1 1 1 1 1 1 1 2 1 1 1 1 3 2 2 2
2 2 2 2 2 3 3 3 3 3 3 3 2 2 1 2 2 2 1 1 1 2 2 2 2 1 2 3 4 3 3 3
2 2 2 2 2 2 3 2 2 1 3 3 2 3 2 2 2 2 1 2 2 2 2 2 2 1 3 4 6 5 5 4
3 2 2 2 3 3 4 4 3 2 2 3 3 2 2 2 1 1 1 2 2 1 2 2 3 2 2 4 7 8 6 5
2 2 2 2 3 3 4 4 4 2 2 4 3 2 2 2 1 1 1 1 1 1 1 1 2 3 3 3 4 5 7 8
2 2 2 3 3 3 4 4 4 2 2 3 3 2 2 1 1 1 1 1 1 1 1 1 1 2 3 4 5 5 5 6
2 3 2 3 3 4 4 4 4 3 3 2 2 2 2 1 1 1 1 1 1 1 1 1 1 2 2 3 4 5 6 6
3 3 3 3 3 4 4 3 3 3 3 2 2 2 2 1 1 1 1 1 1 0 1 1 1 2 3 3 3 4 4 4
3 3 3 3 4 4 3 3 3 3 2 2 2 2 2 2 1 1 1 1 1 0 1 1 1 2 2 3 3 3 3 4